EW8484 Weather Reports


Display with metric or nautical units.
time (UTC)temp
F
wind
direction
speed
MPH
gust
MPH
rain 1hr
in
rain 24hr
in
rain mn
in
humidity
%
barometer
mb
20260901170526 65 0.0 1.0 0.28 1.57 1.57 45 1017.8
20260901170026 65 0.0 1.0 0.28 1.57 1.57 45 1017.9
20260901165526 65 0.0 2.0 0.27 1.56 1.56 45 1017.9
20260901165026 65 0.0 2.0 0.27 1.56 1.56 45 1017.7
20260901164526 65 142 1.0 3.0 0.26 1.55 1.55 45 1017.1
20260901164026 65 0.0 0.0 0.23 1.52 1.52 45 1017.8
20260901163526 65 0.0 0.0 0.14 1.43 1.43 45 1018.3
20260901163046 65 45 1.0 3.0 0.06 1.35 1.35 45 1018.6
20260901162526 65 0.0 3.0 0.02 1.31 1.31 45 1018.4
20260901162026 65 0.0 4.0 0.01 1.30 1.30 45 1018.3
20260901161546 66 0.0 2.0 0.01 1.30 1.30 45 1018.2
20260901161026 66 148 1.0 5.0 0.00 1.29 1.29 45 1018.1
20260901160526 66 0.0 3.0 0.01 1.29 1.29 45 1018.1
20260901160026 66 0.0 0.0 0.01 1.29 1.29 45 1018.1
20260901155526 66 0.0 0.0 0.01 1.29 1.29 45 1018.0
20260901155026 66 0.0 0.0 0.01 1.29 1.29 45 1018.2
20260901154526 66 0.0 0.0 0.01 1.29 1.29 45 1018.2
20260901154026 66 0.0 0.0 0.02 1.29 1.29 45 1018.2
20260901153526 66 0.0 0.0 0.02 1.29 1.29 45 1018.2
20260901153026 66 0.0 2.0 0.02 1.29 1.29 45 1018.2
20260901152526 66 228 1.0 2.0 0.02 1.29 1.29 45 1018.4
20260901152026 66 229 1.0 2.0 0.03 1.29 1.29 45 1018.3
20260901151606 66 230 1.0 2.0 0.03 1.29 1.29 45 1018.4
20260901151026 66 0.0 3.0 0.03 1.29 1.29 45 1018.5
20260901150546 66 181 1.0 2.0 0.03 1.28 1.28 45 1018.5
20260901150026 66 0.0 2.0 0.03 1.28 1.28 45 1018.6
20260901145526 66 0.0 2.0 0.03 1.28 1.28 45 1018.6
20260901145045 66 0.0 0.0 0.03 1.28 1.28 45 1018.7
20260901144526 66 0.0 0.0 0.04 1.28 1.28 45 1018.6
20260901144026 66 0.0 0.0 0.03 1.27 1.27 45 1018.7
20260901143525 66 0.0 0.0 0.04 1.27 1.27 45 1018.8
20260901143026 66 0.0 0.0 0.04 1.27 1.27 45 1018.7
20260901142526 66 0.0 0.0 0.06 1.27 1.27 45 1018.8
20260901142026 66 0.0 0.0 0.06 1.26 1.26 45 1018.6
20260901141526 66 0.0 0.0 0.09 1.26 1.26 45 1018.8
20260901141026 66 0.0 0.0 0.13 1.26 1.26 45 1018.9
20260901140525 66 0.0 0.0 0.20 1.25 1.25 45 1018.8
20260901140026 66 0.0 0.0 0.27 1.25 1.25 45 1019.0
20260901135525 65 0.0 0.0 0.33 1.25 1.25 45 1018.9
20260901135046 65 0.0 0.0 0.34 1.25 1.25 45 1019.0
20260901134526 65 0.0 0.0 0.35 1.24 1.24 45 1018.9
20260901134026 65 0.0 0.0 0.39 1.24 1.24 45 1018.7
20260901133526 65 0.0 0.0 0.43 1.23 1.23 45 1018.8
20260901133026 65 0.0 0.0 0.54 1.23 1.23 45 1018.8
20260901132525 65 0.0 0.0 0.73 1.21 1.21 45 1018.8
20260901132025 65 0.0 0.0 0.86 1.20 1.20 45 1018.8
20260901131525 65 0.0 0.0 0.83 1.17 1.17 45 1018.8
20260901131026 65 0.0 0.0 0.79 1.13 1.13 45 1019.0
20260901130525 65 0.0 0.0 0.72 1.05 1.05 45 1019.1
20260901130025 65 0.0 0.0 0.65 0.98 0.98 45 1019.2
20260901125525 65 0.0 0.0 0.60 0.92 0.92 45 1019.2
20260901125046 65 0.0 0.0 0.63 0.91 0.91 45 1019.2
20260901124525 65 0.0 0.0 0.63 0.89 0.89 45 1018.9
20260901124025 65 0.0 0.0 0.61 0.85 0.85 45 1018.9
20260901123605 65 0.0 0.0 0.59 0.80 0.80 45 1019.0
20260901123025 65 0.0 0.0 0.51 0.69 0.69 45 1019.0
20260901122525 65 0.0 0.0 0.32 0.48 0.48 45 1019.5
20260901122025 65 0.0 0.0 0.19 0.34 0.34 45 1019.5
20260901121525 65 0.0 0.0 0.21 0.34 0.34 45 1018.8
20260901121025 65 0.0 0.0 0.24 0.34 0.34 45 1018.4
20260901120525 65 0.0 0.0 0.25 0.33 0.33 45 1018.5
20260901120026 65 0.0 0.0 0.26 0.33 0.33 45 1018.4
20260901115525 65 0.0 0.0 0.27 0.32 0.32 45 1018.6
20260901115025 65 0.0 0.0 0.23 0.28 0.28 45 1018.8
20260901114525 65 0.0 0.0 0.21 0.26 0.26 45 1019.1
20260901114045 65 0.0 0.0 0.19 0.24 0.24 45 1019.1
20260901113525 65 0.0 0.0 0.16 0.21 0.21 45 1018.9
20260901113025 65 0.0 0.0 0.13 0.18 0.18 45 1019.0
20260901112525 65 0.0 0.0 0.11 0.16 0.16 45 1018.9
20260901112025 65 0.0 0.0 0.10 0.15 0.15 45 1018.9
20260901111545 65 0.0 0.0 0.09 0.13 0.13 45 1019.0
20260901111025 65 0.0 0.0 0.06 0.10 0.10 45 1019.1
20260901110525 65 0.0 0.0 0.04 0.08 0.08 45 1018.9
20260901110025 65 0.0 0.0 0.04 0.07 0.07 45 1019.0
20260901105525 65 0.0 0.0 0.03 0.05 0.05 45 1018.9
20260901105027 65 0.0 0.0 0.03 0.05 0.05 45 1019.0
20260901104547 65 0.0 0.0 0.03 0.05 0.05 45 1018.9
20260901104027 65 0.0 0.0 0.04 0.05 0.05 45 1018.7
20260901103527 65 0.0 0.0 0.04 0.05 0.05 45 1018.8
20260901103027 65 0.0 0.0 0.04 0.05 0.05 45 1018.8
20260901102527 65 0.0 0.0 0.04 0.05 0.05 45 1018.7
20260901102027 65 0.0 0.0 0.04 0.05 0.05 45 1018.7
20260901101527 65 0.0 0.0 0.03 0.04 0.04 45 1018.7
20260901101047 65 0.0 0.0 0.03 0.04 0.04 45 1018.6
20260901100527 65 0.0 0.0 0.03 0.04 0.04 45 1018.6
20260901100027 65 0.0 0.0 0.02 0.03 0.03 45 1018.7
20260901095527 65 0.0 0.0 0.01 0.02 0.02 45 1018.7
20260901095027 65 0.0 0.0 0.01 0.02 0.02 45 1018.7
20260901094527 65 0.0 0.0 0.01 0.02 0.02 45 1018.7
20260901094047 65 0.0 0.0 0.00 0.01 0.01 45 1018.8
20260901093527 65 0.0 0.0 0.00 0.01 0.01 45 1018.7
20260901093027 65 0.0 0.0 0.00 0.01 0.01 45 1018.7
20260901092527 65 0.0 0.0 0.00 0.01 0.01 45 1018.7
20260901092027 65 0.0 0.0 0.00 0.01 0.01 45 1018.7
20260901091527 65 0.0 0.0 0.00 0.01 0.01 45 1018.7
20260901091047 65 0.0 0.0 0.00 0.01 0.01 45 1018.8
20260901090527 65 0.0 0.0 0.00 0.01 0.01 45 1018.8
20260901090047 65 0.0 0.0 0.00 0.01 0.01 45 1018.8
20260901085527 65 0.0 0.0 0.00 0.01 0.01 45 1018.8
20260901085027 65 0.0 0.0 0.00 0.01 0.01 44 1018.8
20260901084527 64 0.0 0.0 0.00 0.01 0.01 44 1018.8
20260901084027 64 0.0 0.0 0.00 0.01 0.01 44 1019.0
20260901083607 64 0.0 0.0 0.00 0.01 0.01 44 1019.1
20260901083027 64 0.0 0.0 0.00 0.01 0.01 44 1019.2
20260901082547 64 0.0 0.0 0.00 0.01 0.01 44 1019.0
20260901082027 64 0.0 0.0 0.00 0.01 0.01 44 1018.9
20260901081527 64 0.0 0.0 0.00 0.01 0.01 44 1018.9
20260901081027 64 0.0 0.0 0.00 0.01 0.01 44 1018.9
20260901080527 64 0.0 0.0 0.00 0.01 0.01 44 1019.0
20260901080027 65 0.0 0.0 0.00 0.01 0.01 44 1019.1
20260901075527 65 0.0 0.0 0.01 0.01 0.01 44 1019.0
20260901075047 64 0.0 0.0 0.01 0.01 0.01 44 1019.1
20260901074527 64 0.0 0.0 0.01 0.01 0.01 44 1019.2
20260901074027 65 0.0 0.0 0.01 0.01 0.01 44 1019.3
20260901073527 65 0.0 0.0 0.01 0.01 0.01 44 1019.4
20260901073027 64 0.0 1.0 0.01 0.01 0.01 44 1019.6
20260901072547 64 0.0 1.0 0.01 0.01 0.01 43 1019.6
20260901072026 64 0.0 1.0 0.01 0.01 0.01 43 1019.5
20260901071527 64 0.0 1.0 0.01 0.01 0.01 42 1019.6
20260901071027 64 0.0 0.0 0.01 0.01 0.01 41 1019.6
20260901070547 64 0.0 1.0 0.01 0.01 0.01 40 1019.7
20260901070027 65 0.0 1.0 0.01 0.01 0.01 39 1019.8
20260901065527 65 0.0 1.0 0.00 0.00 0.00 37 1019.9
20260901065027 65 0.0 0.0 0.00 0.00 0.00 36 1019.8
20260901064527 65 0.0 1.0 0.00 0.00 0.00 35 1019.9
20260901064027 65 0.0 1.0 0.00 0.00 0.00 35 1019.9
20260901063547 65 0.0 1.0 0.00 0.00 0.00 35 1019.9
20260901063026 65 0.0 0.0 0.00 0.00 0.00 37 1020.0
20260901062527 65 0.0 0.0 0.00 0.00 0.00 37 1020.0
20260901062027 65 0.0 1.0 0.00 0.00 0.00 38 1019.9
20260901061527 65 0.0 1.0 0.00 0.00 0.00 39 1019.9
20260901061026 65 0.0 0.0 0.00 0.00 0.00 40 1019.7
20260901060527 65 0.0 0.0 0.00 0.00 0.00 40 1019.7
20260901060026 65 0.0 0.0 0.00 0.00 0.00 42 1019.8
20260901055526 65 0.0 1.0 0.00 0.00 0.00 44 1019.9
20260901055026 66 0.0 1.0 0.00 0.00 0.00 45 1020.1
20260901054526 66 0.0 0.0 0.00 0.00 0.00 46 1020.2
20260901054026 66 0.0 0.0 0.00 0.00 0.00 46 1020.1
20260901053526 66 0.0 0.0 0.00 0.00 0.00 46 1020.2
20260901053027 66 0.0 0.0 0.00 0.00 0.00 46 1020.1
20260901052547 66 0.0 0.0 0.00 0.00 0.00 46 1020.1
20260901052026 66 0.0 0.0 0.00 0.00 0.00 46 1020.1
20260901051526 66 0.0 0.0 0.00 0.00 0.00 46 1020.1
20260901051046 66 0.0 0.0 0.00 0.00 0.00 46 1020.1
20260901050526 66 0.0 0.0 0.00 0.00 0.00 46 1020.0
20260901050027 66 0.0 0.0 0.00 0.00 0.00 46 1020.1
20260901045526 66 0.0 0.0 0.00 0.00 0.00 46 1020.2
20260901045026 66 0.0 0.0 0.00 0.00 0.00 46 1020.1
20260901044526 66 0.0 0.0 0.00 0.00 0.00 45 1020.0
20260901044026 66 0.0 0.0 0.00 0.00 0.00 45 1020.1
20260901043526 66 0.0 0.0 0.00 0.00 0.00 45 1020.0
20260901043027 66 0.0 0.0 0.00 0.00 0.00 45 1020.1
20260901042526 66 0.0 0.0 0.00 0.00 0.00 45 1020.3
20260901042027 66 0.0 0.0 0.00 0.00 0.00 45 1020.4
20260901041607 66 0.0 0.0 0.00 0.00 0.00 45 1020.4
20260901041026 66 0.0 0.0 0.00 0.00 0.00 45 1020.3
20260901040526 66 0.0 0.0 0.00 0.00 0.00 45 1020.3
20260901040026 66 0.0 0.0 0.00 0.00 0.00 45 1020.3
20260901035526 66 0.0 0.0 0.00 0.00 0.00 45 1020.2
20260901035027 66 0.0 0.0 0.00 0.00 0.00 45 1020.3
20260901034527 66 0.0 0.0 0.00 0.00 0.00 45 1020.4
20260901034026 66 0.0 0.0 0.00 0.00 0.00 45 1020.5
20260901033526 66 0.0 0.0 0.00 0.00 0.00 45 1020.6
20260901033027 66 0.0 0.0 0.00 0.00 0.00 45 1020.5
20260901032526 66 0.0 0.0 0.00 0.00 0.00 45 1020.5
20260901032047 66 0.0 0.0 0.00 0.00 0.00 45 1020.5
20260901031527 66 0.0 0.0 0.00 0.00 0.00 45 1020.5
20260901031026 66 0.0 0.0 0.00 0.00 0.00 45 1020.5
20260901030526 66 0.0 0.0 0.00 0.00 0.00 45 1020.6
20260901030026 66 0.0 0.0 0.00 0.00 0.00 45 1020.7
20260901025546 66 0.0 0.0 0.00 0.00 0.00 45 1020.6
20260901025026 66 0.0 0.0 0.00 0.00 0.00 45 1020.6
20260901024526 66 0.0 0.0 0.00 0.00 0.00 45 1020.5
20260901024026 66 0.0 0.0 0.00 0.00 0.00 45 1020.5
20260901023546 67 0.0 0.0 0.00 0.00 0.00 45 1020.5
20260901023026 67 0.0 0.0 0.00 0.00 0.00 45 1020.4
20260901022526 67 0.0 0.0 0.00 0.00 0.00 45 1020.4
20260901022026 67 0.0 0.0 0.00 0.00 0.00 45 1020.2
20260901021526 67 0.0 0.0 0.00 0.00 0.00 45 1020.3
20260901021026 67 0.0 0.0 0.00 0.00 0.00 45 1020.2
20260901020526 67 0.0 0.0 0.00 0.00 0.00 45 1020.2
20260901020026 67 0.0 0.0 0.00 0.00 0.00 45 1020.2
20260901015526 67 0.0 0.0 0.00 0.00 0.00 45 1020.2
20260901015026 67 0.0 0.0 0.00 0.00 0.00 44 1020.1
20260901014526 67 0.0 0.0 0.00 0.00 0.00 44 1020.1
20260901014026 67 0.0 0.0 0.00 0.00 0.00 44 1020.2
20260901013546 67 0.0 0.0 0.00 0.00 0.00 44 1020.1
20260901013026 67 0.0 0.0 0.00 0.00 0.00 44 1020.2
20260901012526 67 0.0 0.0 0.00 0.00 0.00 44 1020.3
20260901012046 67 0.0 0.0 0.00 0.00 0.00 44 1020.4
20260901011546 67 0.0 0.0 0.00 0.00 0.00 43 1020.4
20260901011026 67 0.0 0.0 0.00 0.00 0.00 44 1020.5
20260901010526 67 0.0 0.0 0.00 0.00 0.00 44 1020.3
20260901010026 68 0.0 0.0 0.00 0.00 0.00 44 1020.5
20260901005526 68 0.0 0.0 0.00 0.00 0.00 44 1020.4
20260901005026 68 0.0 0.0 0.00 0.00 0.00 44 1020.4
20260901004546 68 0.0 0.0 0.00 0.00 0.00 44 1020.3
20260901004046 68 0.0 0.0 0.00 0.00 0.00 44 1020.4
20260901003526 68 0.0 0.0 0.00 0.00 0.00 44 1020.5
20260901003046 68 0.0 0.0 0.00 0.00 0.00 44 1020.3
20260901002526 68 0.0 0.0 0.00 0.00 0.00 44 1020.2
20260901002026 68 0.0 0.0 0.00 0.00 0.00 45 1020.2
20260901001546 68 0.0 0.0 0.00 0.00 0.00 46 1020.3
20260901001026 68 0.0 0.0 0.00 0.00 0.00 46 1020.1
20260901000526 69 0.0 0.0 0.00 0.00 0.00 47 1020.1
20260901000026 69 0.0 0.0 0.00 0.00 0.00 47 1020.0
20260831235526 69 0.0 0.0 0.00 0.00 0.00 48 1020.1
20260831235026 69 0.0 0.0 0.00 0.00 0.00 48 1020.0
20260831234526 69 0.0 0.0 0.00 0.00 0.00 49 1020.1
20260831234026 69 0.0 0.0 0.00 0.00 0.00 51 1020.1
20260831233526 69 0.0 0.0 0.00 0.00 0.00 52 1020.2
20260831233046 69 0.0 0.0 0.00 0.00 0.00 53 1020.2
20260831232526 69 0.0 0.0 0.00 0.00 0.00 53 1020.3
20260831232026 70 0.0 0.0 0.00 0.00 0.00 53 1020.3
20260831231526 70 0.0 0.0 0.00 0.00 0.00 53 1020.3
20260831231026 70 0.0 0.0 0.00 0.00 0.00 54 1020.4
20260831230526 70 0.0 0.0 0.00 0.00 0.00 55 1020.4
20260831230026 70 0.0 0.0 0.00 0.00 0.00 55 1020.4
20260831225546 70 0.0 0.0 0.00 0.00 0.00 55 1020.6
20260831225026 70 0.0 0.0 0.00 0.00 0.00 56 1020.5
20260831224526 70 0.0 0.0 0.00 0.00 0.00 56 1020.3
20260831224101 71 0.0 0.0 0.00 0.00 0.00 56 1020.4
20260831223526 71 0.0 0.0 0.00 0.00 0.00 56 1020.4
20260831223046 71 0.0 0.0 0.00 0.00 0.00 57 1020.4
20260831222546 71 0.0 0.0 0.00 0.00 0.00 58 1020.3
20260831222026 71 0.0 0.0 0.00 0.00 0.00 59 1020.5
20260831221526 71 0.0 0.0 0.00 0.00 0.00 59 1020.5
20260831221046 72 0.0 0.0 0.00 0.00 0.00 59 1020.5
20260831220526 72 0.0 0.0 0.00 0.00 0.00 59 1020.5
20260831220026 72 0.0 0.0 0.00 0.00 0.00 59 1020.6
20260831215526 72 0.0 0.0 0.00 0.00 0.00 60 1020.5
20260831215026 72 0.0 0.0 0.00 0.00 0.00 60 1020.5
20260831214526 72 0.0 0.0 0.00 0.00 0.00 60 1020.5
20260831214046 72 0.0 0.0 0.00 0.00 0.00 59 1020.4
20260831213526 72 0.0 0.0 0.00 0.00 0.00 59 1020.6
20260831213026 72 0.0 0.0 0.00 0.00 0.00 60 1020.6
20260831212526 72 0.0 0.0 0.00 0.00 0.00 59 1020.6
20260831212126 72 0.0 0.0 0.00 0.00 0.00 59 1020.7
20260831211526 72 0.0 0.0 0.00 0.00 0.00 59 1020.7
20260831211026 72 0.0 0.0 0.00 0.00 0.00 59 1020.6
20260831210526 73 0.0 0.0 0.00 0.00 0.00 58 1020.6
20260831210026 73 0.0 0.0 0.00 0.00 0.00 57 1020.5
20260831205546 73 0.0 0.0 0.00 0.00 0.00 57 1020.5
20260831205026 73 0.0 1.0 0.00 0.00 0.00 56 1020.6
20260831204526 74 0.0 1.0 0.00 0.00 0.00 55 1020.4
20260831204025 74 0.0 0.0 0.00 0.00 0.00 54 1020.5
20260831203526 74 0.0 2.0 0.00 0.00 0.00 52 1020.6
20260831203045 74 77 1.0 2.0 0.00 0.00 0.00 51 1020.7
20260831202526 74 0.0 0.0 0.00 0.00 0.00 53 1020.7
20260831202025 74 0.0 0.0 0.00 0.00 0.00 52 1020.8
20260831201526 74 0.0 0.0 0.00 0.00 0.00 53 1020.9
20260831201026 74 0.0 0.0 0.00 0.00 0.00 53 1020.7
20260831200526 74 0.0 0.0 0.00 0.00 0.00 53 1020.8
20260831200026 75 0.0 0.0 0.00 0.00 0.00 55 1020.9
20260831195546 75 0.0 0.0 0.00 0.00 0.00 53 1020.8
20260831195026 75 0.0 1.0 0.00 0.00 0.00 52 1020.8
20260831194526 75 0.0 2.0 0.00 0.00 0.00 55 1020.8
20260831194025 74 0.0 0.0 0.00 0.00 0.00 56 1020.8
20260831193526 74 0.0 0.0 0.00 0.00 0.00 57 1020.8
20260831193026 74 0.0 0.0 0.00 0.00 0.00 56 1020.7
20260831192526 74 0.0 0.0 0.00 0.00 0.00 55 1020.7
20260831192025 74 0.0 0.0 0.00 0.00 0.00 56 1020.9
20260831191546 75 0.0 0.0 0.00 0.00 0.00 55 1021.2
20260831191026 75 0.0 1.0 0.00 0.00 0.00 54 1021.4
20260831190525 75 0.0 2.0 0.00 0.00 0.00 52 1021.3
20260831190026 75 0.0 1.0 0.00 0.00 0.00 52 1021.2
20260831185525 76 0.0 1.0 0.00 0.00 0.00 52 1021.3
20260831185025 76 0.0 2.0 0.00 0.00 0.00 52 1021.3
20260831184606 76 54 1.0 3.0 0.00 0.00 0.00 50 1021.4
20260831184045 76 0.0 1.0 0.00 0.00 0.00 53 1021.4
20260831183525 75 0.0 1.0 0.00 0.00 0.00 54 1021.5
20260831183025 75 0.0 1.0 0.00 0.00 0.00 53 1021.5
20260831182525 75 0.0 1.0 0.00 0.00 0.00 54 1021.4
20260831182025 75 0.0 1.0 0.00 0.00 0.00 53 1021.4
20260831181526 75 0.0 1.0 0.00 0.00 0.00 54 1021.4
20260831181025 75 0.0 1.0 0.00 0.00 0.00 52 1021.4
20260831180545 76 0.0 1.0 0.00 0.00 0.00 53 1021.3
20260831180026 76 32 1.0 3.0 0.00 0.00 0.00 49 1021.4
20260831175525 76 32 1.0 2.0 0.00 0.00 0.00 46 1021.5
20260831175026 76 55 2.0 4.0 0.00 0.00 0.00 46 1021.5
20260831174525 76 99 1.0 3.0 0.00 0.00 0.00 48 1021.7
20260831174025 76 0.0 1.0 0.00 0.00 0.00 49 1021.8
20260831173525 76 0.0 1.0 0.00 0.00 0.00 49 1021.9
20260831173025 75 0.0 1.0 0.00 0.00 0.00 48 1021.8
20260831172525 75 127 1.0 3.0 0.00 0.00 0.00 49 1021.9
20260831172025 76 148 1.0 2.0 0.00 0.00 0.00 48 1022.1
20260831171525 76 0.0 0.0 0.00 0.00 0.00 52 1022.3
20260831171025 76 0.0 0.0 0.00 0.00 0.00 50 1022.4